Regional Weather Roundup
Issued by NWS

Home | Current Version | Previous Version | Graphics & Text | Print | Product List | Glossary On
Versions: 1 2 3 4 5 6 7 8 9 10 11 12 13 14 15 16 17 18 19 20 21 22 23 24 25 26 27 28
000
ASUS45 KCYS 280010
RWRWY

WYOMING REGIONAL WEATHER ROUNDUP
NATIONAL WEATHER SERVICE CHEYENNE WY
600 PM MDT SAT AUG 27 2016

NOTE:  "FAIR" INDICATES FEW OR NO CLOUDS BELOW 12,000 FEET
WITH NO SIGNIFICANT WEATHER AND/OR OBSTRUCTIONS TO VISIBILITY.

WYZ001-280100-
YELLOWSTONE NATIONAL PARK

CITY           SKY/WX    TMP DP  RH WIND       PRES   REMARKS
LK YELLOWSTONE   N/A     65  21  18 VRB6      30.19R
6HR MIN TEMP:  61; 6HR MAX TEMP:  69;

W YELLOWSTONE  NOT AVBL

$$
WYZ002>013-054>058-071-098>099-280100-
NORTHERN WYOMING

CITY           SKY/WX    TMP DP  RH WIND       PRES   REMARKS
JACKSON        SUNNY     73  19  13 SW12G23   30.09S
CODY           FAIR      79  30  17 SE12      29.94S
GREYBULL       FAIR      84  30  14 E8        29.86F
6HR MIN TEMP:  73; 6HR MAX TEMP:  84;

WORLAND        FAIR      83  32  16 SW8       29.88S
6HR MIN TEMP:  75; 6HR MAX TEMP:  86;

SHERIDAN       FAIR      84  34  16 E3        29.88S
6HR MIN TEMP:  78; 6HR MAX TEMP:  84;

BUFFALO        FAIR      80  34  19 N7        29.96R
6HR MIN TEMP:  76; 6HR MAX TEMP:  84;

GILLETTE       FAIR      81  28  14 W16G22    29.90R
6HR MIN TEMP:  77; 6HR MAX TEMP:  85;

HULETT         FAIR      79  43  27 CALM      29.93S
NEWCASTLE      FAIR      79  39  24 SE10      29.94S

$$
WYZ014>020-022>026-101>103-280100-
CENTRAL WYOMING

CITY           SKY/WX    TMP DP  RH WIND       PRES   REMARKS
BIG PINEY      FAIR      75  26  16 SW9       30.14R
6HR MIN TEMP:  64; 6HR MAX TEMP:  78;

PINEDALE       FAIR      72  23  16 NW14      30.14S
DUBOIS         FAIR      70  19  14 W20G26    30.12R
LANDER         FAIR      80  25  13 NW8       29.98S
6HR MIN TEMP:  71; 6HR MAX TEMP:  83;

RIVERTON       FAIR      78  25  14 NE3       30.00S
6HR MIN TEMP:  68; 6HR MAX TEMP:  79;

CASPER         FAIR      80  23  12 W20       29.99S
6HR MIN TEMP:  73; 6HR MAX TEMP:  82;

DOUGLAS        FAIR      83  26  12 W12       29.98S
6HR MIN TEMP:  77; 6HR MAX TEMP:  84;


$$
WYZ021-027>030-104>119-280100-
SOUTHERN WYOMING

CITY           SKY/WX    TMP DP  RH WIND       PRES   REMARKS
EVANSTON       FAIR      74  20  13 W15G26    30.18S
6HR MIN TEMP:  70; 6HR MAX TEMP:  77;

FORT BRIDGER   FAIR      77  22  13 W18G24    30.19R
ROCK SPRINGS   FAIR      77  19  11 W17G24    30.12S
6HR MIN TEMP:  70; 6HR MAX TEMP:  79;

DIXON          FAIR      77  31  18 SW7G16    30.17S
RAWLINS        FAIR      76  20  12 SW16G23   30.13S
6HR MIN TEMP:  72; 6HR MAX TEMP:  79;

SARATOGA       FAIR      73  27  17 SW15G21   30.18S
LARAMIE        FAIR      71  28  20 SW15G21   30.17R
6HR MIN TEMP:  69; 6HR MAX TEMP:  75;

CHEYENNE       FAIR      78  36  21 S13G21    30.10S
6HR MIN TEMP:  74; 6HR MAX TEMP:  81;

TORRINGTON     FAIR      82  46  28 SE13      29.95S
6HR MIN TEMP:  78; 6HR MAX TEMP:  89;

PINE BLUFFS    FAIR      81  32  17 S12G22    30.05S

$$




USA.gov is the U.S. government's official web portal to all federal, state and local government web resources and services.